Regional Weather Roundup
Issued by NWS Wakefield, VA

Home | Current Version | Previous Version | Text Only | Print | Product List | Glossary On
Versions: 1 2 3 4 5 6 7 8 9 10 11 12 13 14 15 16 17 18 19 20 21 22 23 24 25 26 27
000
ASUS41 KAKQ 210315
RWRAKQ

REGIONAL WEATHER ROUNDUP
NATIONAL WEATHER SERVICE WAKEFIELD VA
1100 PM EDT FRI OCT 20 2017

Note: "fair" indicates few or no clouds below 12,000 feet with no
significant weather and/or obstructions to visibility. * = Denotes
station may not report precipitation (e.g., rain,snow,etc.),
thunder or fog.

VAZ042-051-052>054-056-210400-
NORTHERN VIRGINIA

CITY           SKY/WX    TMP DP  RH WIND       PRES   REMARKS
WASH NATIONAL  CLEAR     60  53  77 N5        30.25R
DULLES         CLEAR     52  47  83 CALM      30.25R
FORT BELVOIR   CLEAR     50  48  93 CALM      30.24R
QUANTICO       CLEAR     54  53  97 NW7       30.26R
FREDERICKSBRG* CLEAR     53  49  88 CALM      30.24R
STAFFORD*      CLEAR     48  48 100 CALM      30.28S
WARRENTON      CLEAR     45  41  86 CALM      30.25R
CULPEPER*      CLEAR     49  44  83 CALM      30.26R
MANASSAS*      CLEAR     48  46  93 CALM      30.26R
LEESBURG*      CLEAR     52  50  93 CALM      30.27R
WINCHESTER     CLEAR     50  45  81 CALM      30.26R
FRONT ROYAL*   CLEAR     50  45  81 CALM      30.26R
LURAY*         CLEAR     50  46  87 CALM      30.27R
$$

VAZ048-049-060>072-079>083-210400-
CENTRAL AND SOUTH CENTRAL VIRGINIA

CITY           SKY/WX    TMP DP  RH WIND       PRES   REMARKS
RICHMOND       CLEAR     56  53  90 S3        30.25R
CHESTERFIELD*  NOT AVBL
PETERSBURG*    CLEAR    N/A N/A N/A CALM      30.25R HAZE
HANOVER        CLEAR     54  53  97 CALM      30.26R
TAPPAHANNOCK*  CLEAR    N/A N/A N/A CALM      30.25R
QUINTON*       FAIR      55  55 100 MISG      30.25R
CHARLOTTSVILLE CLEAR     58  53  84 CALM      30.26R
GORDONSVILLE*  CLEAR     52  52 100 CALM      30.26R
ORANGE*        CLEAR     50  48  93 CALM      30.26R
LOUISA*        CLEAR     50  48  93 CALM      30.26R
BUMPASS*       FAIR      53  52  97 CALM      30.25R
FARMVILLE*     CLEAR     55  55 100 CALM      30.25R
CREWE*         FAIR      52  52 100 CALM      30.25R
FORT PICKETT*  FAIR      55  55 100 CALM      30.25R
CHASE CITY*    FAIR      55  51  88 CALM      30.25R
CLARKSVILLE*   FAIR      52  52 100 CALM      30.25R
SOUTH HILL*    CLEAR     53  52  97 CALM      30.31R
LAWRENCEVILLE* FAIR      55  52  89 CALM      30.25R
EMPORIA*       CLEAR     50  48  93 CALM      30.26R
$$

VAZ088>098-210400-
SOUTHEAST VIRGINIA

CITY           SKY/WX    TMP DP  RH WIND       PRES   REMARKS
NORFOLK        CLEAR     61  58  90 SW3       30.24R
VIRGINIA BEACH CLEAR     57  54  89 CALM      30.24R
NORFOLK NAVAL  CLEAR     59  56  89 CALM      30.26R
WEST POINT*    CLEAR     52  52 100 CALM      30.26R
SALUDA*        FAIR      55  55 100 CALM      30.24S
NEWPORT NEWS   FOG       56  55  97 CALM      30.25R VSB 1/4
LANGLEY AFB    CLEAR     59  59  99 CALM      30.23S
FORT EUSTIS    CLEAR     58  54  86 CALM      30.22R
WILLIAMSBURG*  CLEAR     59  57  94 CALM      30.26R
HR EXEC AP*    NOT AVBL
FRANKLIN*      CLEAR     53  52  95 CALM      30.25R
US460-WAKEFLD  CLEAR     55  54  96 CALM      30.25R
$$

VAZ020-022-025-037-045-210400-
WEST CENTRAL AND SOUTHWEST VIRGINIA

CITY           SKY/WX    TMP DP  RH WIND       PRES   REMARKS
STAUNTON*      CLEAR     49  45  86 CALM      30.29R
WAYNESBORO*    CLEAR     53  49  87 CALM      30.28R
HOT SPRINGS VA CLEAR     58  44  58 CALM      30.35S
LYNCHBURG      CLEAR     56  50  80 CALM      30.27R
DANVILLE       CLEAR     51  50  96 CALM      30.26R
SOUTH BOSTON*  FAIR      52  51  96 CALM      30.25R
MARTINSVILLE   CLEAR     50  49  95 CALM      30.29R
ROANOKE        CLEAR     57  52  83 CALM      30.29R
BLACKSBURG     CLEAR     53  49  89 CALM      30.32S
DUBLIN*        CLEAR     52  48  85 W5        30.32R
MARION*        CLEAR     51  44  76 CALM      30.34R
HILLSVILLE*    CLEAR     58  43  56 CALM      30.31R
RICHLANDS*     FAIR      57  -4   8 NE3       30.31R
WISE*          CLEAR     61  46  59 CALM      30.30S
ABINGDON*      CLEAR     54  49  82 SE3       30.28R
$$

MDZ021>025-VAZ099-100-210400-
SOUTHERN MARYLAND AND THE DELMARVA PENINSULA

CITY           SKY/WX    TMP DP  RH WIND       PRES   REMARKS
PATUXENT RIVER CLEAR     53  51  93 W3        30.24R
BAY BRIDGE APT CLEAR     57  52  82 CALM      30.24R
LEONARDTOWN    NOT AVBL
DOVER          CLEAR     61  45  55 SW2       30.18S
GEORGETOWN     CLEAR     53  48  83 CALM      30.24R
EASTON         CLEAR     53  49  85 CALM      30.27R
CAMBRIDGE      CLEAR     52  50  93 CALM      30.24R
SALISBURY      CLEAR     51  49  92 CALM      30.23R
OCEAN CITY     CLEAR     52  52 100 CALM      30.24R
WALLOPS ISLAND CLEAR     55  52  89 CALM      30.24R
ACCOMACK*      CLEAR     54  54  99 CALM      30.24R
$$

NCZ012>017-030>032-210400-
NORTH CENTRAL AND EASTERN NORTH CAROLINA

CITY           SKY/WX    TMP DP  RH WIND       PRES   REMARKS
ROANOKE RAPIDS FAIR      54  54 100 CALM      30.24R
RALEIGH        CLEAR     57  53  86 CALM      30.26R
ELIZABETH CITY CLEAR     57  56  96 CALM      30.25R
AHOSKIE*       CLEAR     53  53 100 CALM      30.25R
EDENTON*       CLEAR     59  57  93 CALM      30.25S
CURRITUCK*     CLEAR     57  56  96 CALM      30.25S
KILL DEVIL HLS CLEAR     62  61  98 CALM      30.24R
MANTEO         CLEAR    N/A N/A N/A CALM      30.25R
CAPE HATTERAS  CLEAR     60  59  96 N3        30.24R
TARBORO*       NOT AVBL
GOLDSBORO      CLEAR     56  53  89 CALM      30.22R FOG
WASHINGTON     CLEAR     55  54  94 CALM      30.24S
GREENVILLE     CLEAR     54  54 100 CALM      30.24S FOG
NEW BERN       CLEAR     55  55 100 CALM      30.25R
WILMINGTON     CLEAR     58  55  90 CALM      30.23R
$$

VAZ048-210400-
ELSEWHERE

CITY           SKY/WX    TMP DP  RH WIND       PRES   REMARKS
HARRISBURG PA  CLEAR     51  48  89 CALM      30.24R
BALTIMORE      CLEAR     52  49  89 NW3       30.24R
ANNAPOLIS      CLEAR     59  57  93 CALM      30.24R
ANDREWS AFB    CLEAR     53  47  80 CALM      30.24R
PHILADELPHIA   CLEAR     61  39  44 CALM      30.23R
HENDERSON NC   CLEAR     52  49  88 CALM      30.26R
GREENSBORO     CLEAR     58  52  80 CALM      30.25R
ROCKY MOUNT    CLEAR     54  54 100 CALM      30.25R FOG
$$

VAZ100-210400-
MARINE

STATION/POSITION TIME  TEMP    WIND        PRES    WAVE   SWELL
                       AIR SEA DIR/SP/G            HT/PER HT/PER
                 (UTC) (F)     (DEG/KT/KT) (MB)    (FT/S) (FT/S)
BRANDYWINE LGT   0236   68                 1023.6R
CAPE MAY NJ      0236   62 66              1022.8R
LEWES DE         0236   62 66              1023.1R
15NM E FENWICK I 0250   68 67  310/  6/  8 1023.9R   2/ 8   2/ 8
OCEAN-CITY-INLET 0236   62 67              1024.0R
WACHAPREAGUE VA  0236   59 67              1024.0R
THOMAS POINT MD  0300   64 67  320/  4/  5   N/A
GOOSES REEF MD   0300   67 68  330/  4/  4 1022.6    0
COVE POINT MD    0236   65                 1024.5R
SOLOMONS ISLAND  0236   60 69              1023.7R
BISHOPS HEAD MD  0236   65 67              1024.2R
PINEY POINT MD   0218           CALM  /  1   N/A
POTOMAC MD       0300   68 69  360/  2/  2 1023.4    0
CAMBRIDGE MD     0236   58 67              1024.5R
LEWISETTA VA     0236   60 66              1023.7R
RAPPAHANNOCK LGT 0236                      1024.6R
STINGRAY PT      0300   66 68  250/  4/  4 1024.4    0
YORK RVR RNG VA  0236   68                 1024.5R
YORKTOWN VA      0236   63 70              1023.7R
JAMESTOWN VA     0300      69   CALM  /  2   N/A     0
DOMINION TERM VA 0236   67                 1024.2R
KIPTOPEKE VA     0236      69                N/A
CAPE HENRY VA    0236   65                   N/A
WILLOUBY STN VA  0236   66                 1024.1R
S CRANEY ISL VA  0236   68                 1023.8R
CAPE HENRY BUOY  0300      70                N/A     2/ 8
1ST LANDING BUOY 0300   68 69              1024.1    1/ 4
CAPE CHARLES BUO 0251      70                N/A     2/ 9
64NM E OF VA BCH 0250   67 67  290/  2/  2 1024.4R   3/ 9   3/ 9
DUCK PIER NC     0236   66 70              1023.8R
44100 DUCK FRF   0205      71                N/A     2/ 8
44056 DUCK FRF   0300      70                N/A     2/ 8
OREGON INLET NC  0236   63 70              1024.1R
HATTERAS NC      0236   68 71              1023.9R
DIAMOND SHLS NC  0250   73 81  340/  4/  6 1023.8R   3/ 9   3/ 9
CAPE LOOKOUT NC  0300   71     120/  4/  5 1023.6R
$$




USA.gov is the U.S. government's official web portal to all federal, state and local government web resources and services.